GMT,Max TemperatureF,Mean TemperatureF,Min TemperatureF,Max Dew PointF,MeanDew PointF,Min DewpointF,Max Humidity, Mean Humidity, Min Humidity, Max Sea Level PressureIn, Mean Sea Level PressureIn, Min Sea Level PressureIn, Max VisibilityMiles, Mean VisibilityMiles, Min VisibilityMiles, Max Wind SpeedMPH, Mean Wind SpeedMPH, Max Gust SpeedMPH,PrecipitationIn, CloudCover, Events, WindDirDegrees
2012-1-1,55,50,44,52,48,41,94,86,77,29.77,29.66,29.53,6,6,4,17,13,,0.00,3,Rain,232
2012-1-2,46,42,39,41,36,34,93,79,62,29.92,29.78,29.62,6,6,6,18,11,,0.00,1,,235
2012-1-3,53,48,42,50,41,34,94,79,66,29.83,29.62,29.36,6,6,3,30,19,43,0.00,5,Rain,239
2012-1-4,50,46,41,43,38,30,87,75,65,30.15,29.93,29.59,6,6,3,34,19,38,0.00,4,Rain,256
2012-1-5,53,48,44,45,39,34,82,68,50,30.06,29.69,29.44,6,6,6,37,27,50,0.00,3,Rain,290
2012-1-6,48,42,37,45,38,34,87,77,66,30.33,30.23,30.06,6,6,6,16,10,,0.00,3,,276
2012-1-7,51,48,44,46,39,34,87,70,54,30.27,30.18,30.06,6,6,6,21,15,,0.00,4,,278
2012-1-8,50,47,44,45,40,37,93,74,62,30.36,30.32,30.24,6,6,4,14,8,,0.00,6,Rain,275
2012-1-9,53,48,42,46,45,41,93,82,72,30.51,30.41,30.33,6,6,1,21,10,,0.00,6,,260
2012-1-10,51,50,48,46,45,43,93,85,76,30.54,30.51,30.48,6,6,4,16,9,,0.00,6,,250
2012-1-11,51,48,44,46,43,39,87,82,76,30.54,30.50,30.42,6,6,6,15,10,,0.00,4,,247
2012-1-12,55,48,41,46,41,34,87,77,62,30.45,30.35,30.27,6,6,6,21,12,,0.00,5,,276
2012-1-13,44,38,30,37,33,28,93,81,61,30.54,30.50,30.45,6,6,4,7,4,,0.00,1,,339
2012-1-14,42,35,28,32,30,27,93,85,61,30.51,30.41,30.33,6,5,4,7,3,,0.00,4,Fog,75
2012-1-15,44,37,30,32,29,27,87,77,57,30.30,30.25,30.21,6,6,6,15,8,,0.00,1,,96
2012-1-16,44,36,28,30,27,23,93,74,43,30.33,30.28,30.21,6,5,4,9,6,,0.00,,,82
2012-1-17,41,34,28,36,30,23,93,82,69,30.36,30.34,30.33,6,5,3,7,4,,0.00,4,,172
2012-1-18,53,45,37,50,46,36,100,91,82,30.33,30.22,30.18,6,4,1,15,9,,0.00,6,Rain,230
2012-1-19,53,48,41,52,44,36,94,83,71,30.15,30.08,30.01,6,6,2,20,14,,0.00,4,Rain,266
2012-1-20,51,46,41,43,39,34,82,75,67,30.15,30.10,30.04,6,6,6,21,15,,0.00,5,Rain,268
2012-1-21,55,50,42,46,41,34,87,71,54,30.01,29.90,29.83,6,6,6,28,16,41,0.00,4,,275
2012-1-22,53,48,42,41,36,34,81,66,47,30.06,29.96,29.89,6,6,6,21,14,30,0.00,3,,281
2012-1-23,46,42,35,37,36,34,93,79,66,30.15,30.09,30.06,6,6,6,16,10,,0.00,1,,280
2012-1-24,51,42,33,48,41,32,100,93,87,30.18,30.09,30.01,6,4,2,10,7,,0.00,6,Rain,240
2012-1-25,50,48,46,48,45,43,94,87,82,30.06,29.97,29.80,6,6,2,15,9,24,0.00,6,,220
2012-1-26,50,44,37,45,38,32,93,79,61,29.98,29.80,29.71,6,6,4,25,13,,0.00,3,Rain,221
2012-1-27,48,42,35,37,34,32,93,76,54,30.15,30.09,29.98,6,6,6,14,9,,0.00,1,Rain,242
2012-1-28,42,38,35,37,35,34,93,85,76,30.48,30.37,30.18,6,6,5,8,5,,0.00,4,,3
2012-1-29,41,38,35,36,34,30,100,86,75,30.48,30.43,30.36,6,4,1,12,5,,0.00,6,,64
2012-1-30,39,36,32,32,29,27,93,77,61,30.36,30.29,30.21,6,5,4,7,4,,0.00,4,Snow,27
2012-1-31,35,32,30,32,29,27,93,83,75,30.39,30.30,30.21,6,4,2,10,5,,0.00,5,Snow,53